[keps] orb10196.amsat
Ray Hoad
ray.hoad at mypbmail.com
Thu Jul 15 19:46:21 PDT 2010
SB KEPS @ AMSAT $ORB10196.O
Orbital Elements 10196.OSCAR
HR AMSAT ORBITAL ELEMENTS FOR OSCAR SATELLITES
FROM WA5QGD FORT WORTH,TX July 15, 2010
Send Subscribe/unsubscribe to KEPS at http://www.amsat.org/mailman/listinfo/keps
BID: ORB10196.O
TO ALL RADIO AMATEURS BT
Satellite: AO-07
Catalog number: 07530
Epoch time: 10196.13484308
Element set: 827
Inclination: 101.3991 deg
RA of node: 210.9160 deg
Eccentricity: 0.0011633
Arg of perigee: 218.8843 deg
Mean anomaly: 141.1396 deg
Mean motion: 12.53578858 rev/day
Decay rate: -2.7e-07 rev/day^2
Epoch rev: 63195
Checksum: 300
Satellite: FO-29
Catalog number: 24278
Epoch time: 10195.91094103
Element set: 0360
Inclination: 098.5143 deg
RA of node: 021.2074 deg
Eccentricity: 0.0351469
Arg of perigee: 051.9793 deg
Mean anomaly: 311.2534 deg
Mean motion: 13.52951848 rev/day
Decay rate: 8.9e-07 rev/day^2
Epoch rev: 68685
Checksum: 320
Satellite: SO-33
Catalog number: 25509
Epoch time: 10196.49644198
Element set: 753
Inclination: 031.4328 deg
RA of node: 348.4352 deg
Eccentricity: 0.0354137
Arg of perigee: 177.5637 deg
Mean anomaly: 182.6787 deg
Mean motion: 14.28317175 rev/day
Decay rate: 3.34e-06 rev/day^2
Epoch rev: 61210
Checksum: 321
Satellite: RS-22
Catalog number: 27939
Epoch time: 10196.63565724
Element set: 364
Inclination: 097.8891 deg
RA of node: 060.9102 deg
Eccentricity: 0.0013138
Arg of perigee: 335.0031 deg
Mean anomaly: 025.0532 deg
Mean motion: 14.63433340 rev/day
Decay rate: 1.3e-07 rev/day^2
Epoch rev: 36311
Checksum: 270
Satellite: VO-52
Catalog number: 28650
Epoch time: 10195.75245715
Element set: 551
Inclination: 097.6905 deg
RA of node: 248.1098 deg
Eccentricity: 0.0026782
Arg of perigee: 183.9342 deg
Mean anomaly: 176.1657 deg
Mean motion: 14.81770461 rev/day
Decay rate: -1.36e-06 rev/day^2
Epoch rev: 28077
Checksum: 331
Satellite: SO-67
Catalog number: 35870
Epoch time: 10196.86938131
Element set: 912
Inclination: 097.3303 deg
RA of node: 245.2447 deg
Eccentricity: 0.0003544
Arg of perigee: 028.5957 deg
Mean anomaly: 078.8117 deg
Mean motion: 15.20953739 rev/day
Decay rate: 4.58e-06 rev/day^2
Epoch rev: 4581
Checksum: 330
Satellite: HO-68
Catalog number: 36122
Epoch time: 10196.82719460
Element set: 488
Inclination: 100.4670 deg
RA of node: 256.9647 deg
Eccentricity: 0.0007136
Arg of perigee: 272.4492 deg
Mean anomaly: 087.5805 deg
Mean motion: 13.16281136 rev/day
Decay rate: -4.5e-07 rev/day^2
Epoch rev: 2798
Checksum: 318
/EX
SB KEPS @ AMSAT $ORB10196.D
Orbital Elements 10196.MICROS
HR AMSAT ORBITAL ELEMENTS FOR THE MICROSATS
FROM WA5QGD FORT WORTH,TX July 15, 2010
Send Subscribe/unsubscribe to KEPS at http://www.amsat.org/mailman/listinfo/keps
BID: ORB10196.D
TO ALL RADIO AMATEURS BT
Satellite: UO-11
Catalog number: 14781
Epoch time: 10196.69199645
Element set: 288
Inclination: 098.0534 deg
RA of node: 248.5184 deg
Eccentricity: 0.0009650
Arg of perigee: 141.0382 deg
Mean anomaly: 219.1527 deg
Mean motion: 14.79814746 rev/day
Decay rate: -1.99e-06 rev/day^2
Epoch rev: 41602
Checksum: 328
Satellite: AO-16
Catalog number: 20439
Epoch time: 10195.44185115
Element set: 0945
Inclination: 098.3339 deg
RA of node: 152.2774 deg
Eccentricity: 0.0011940
Arg of perigee: 084.7219 deg
Mean anomaly: 275.5325 deg
Mean motion: 14.31866882 rev/day
Decay rate: 1.2e-07 rev/day^2
Epoch rev: 06928
Checksum: 312
Satellite: LO-19
Catalog number: 20442
Epoch time: 10196.41335011
Element set: 855
Inclination: 098.2950 deg
RA of node: 158.8984 deg
Eccentricity: 0.0012969
Arg of perigee: 077.5768 deg
Mean anomaly: 282.6878 deg
Mean motion: 14.32097374 rev/day
Decay rate: -4.7e-07 rev/day^2
Epoch rev: 6959
Checksum: 351
Satellite: AO-27
Catalog number: 22825
Epoch time: 10196.43488605
Element set: 578
Inclination: 098.4872 deg
RA of node: 143.6577 deg
Eccentricity: 0.0007969
Arg of perigee: 179.2717 deg
Mean anomaly: 180.8463 deg
Mean motion: 14.29302451 rev/day
Decay rate: 1.07e-06 rev/day^2
Epoch rev: 87608
Checksum: 347
Satellite: IO-26
Catalog number: 22826
Epoch time: 10196.42529881
Element set: 314
Inclination: 098.4800 deg
RA of node: 144.2375 deg
Eccentricity: 0.0008859
Arg of perigee: 175.2578 deg
Mean anomaly: 184.8685 deg
Mean motion: 14.29558228 rev/day
Decay rate: -2.4e-07 rev/day^2
Epoch rev: 87619
Checksum: 347
Satellite: GO-32
Catalog number: 25397
Epoch time: 10195.59031529
Element set: 0235
Inclination: 098.3109 deg
RA of node: 201.5309 deg
Eccentricity: 0.0001559
Arg of perigee: 141.3911 deg
Mean anomaly: 218.7363 deg
Mean motion: 14.23180425 rev/day
Decay rate: -1.37e-06 rev/day^2
Epoch rev: 62394
Checksum: 287
Satellite: NO-44
Catalog number: 26931
Epoch time: 10196.32816006
Element set: 508
Inclination: 067.0521 deg
RA of node: 131.4711 deg
Eccentricity: 0.0005318
Arg of perigee: 265.5141 deg
Mean anomaly: 094.5350 deg
Mean motion: 14.29603835 rev/day
Decay rate: 1.77e-06 rev/day^2
Epoch rev: 45877
Checksum: 288
Satellite: SO-50
Catalog number: 27607
Epoch time: 10196.48332756
Element set: 221
Inclination: 064.5582 deg
RA of node: 270.5717 deg
Eccentricity: 0.0035873
Arg of perigee: 063.5273 deg
Mean anomaly: 296.9471 deg
Mean motion: 14.71554937 rev/day
Decay rate: 8.5e-07 rev/day^2
Epoch rev: 40654
Checksum: 325
Satellite: CO-55
Catalog number: 27844
Epoch time: 10196.54755306
Element set: 890
Inclination: 098.7090 deg
RA of node: 205.1132 deg
Eccentricity: 0.0010893
Arg of perigee: 087.4986 deg
Mean anomaly: 272.7456 deg
Mean motion: 14.20717830 rev/day
Decay rate: 5.0e-07 rev/day^2
Epoch rev: 36511
Checksum: 312
Satellite: CO-57
Catalog number: 27848
Epoch time: 10196.51085336
Element set: 840
Inclination: 098.7134 deg
RA of node: 204.1761 deg
Eccentricity: 0.0010696
Arg of perigee: 092.3648 deg
Mean anomaly: 267.8745 deg
Mean motion: 14.20509525 rev/day
Decay rate: 2.7e-07 rev/day^2
Epoch rev: 36506
Checksum: 320
Satellite: AO-51
Catalog number: 28375
Epoch time: 10195.99898986
Element set: 724
Inclination: 098.0632 deg
RA of node: 187.9121 deg
Eccentricity: 0.0085015
Arg of perigee: 013.3961 deg
Mean anomaly: 346.9456 deg
Mean motion: 14.40690780 rev/day
Decay rate: 1.1e-07 rev/day^2
Epoch rev: 31751
Checksum: 331
Satellite: GENESAT1
Catalog number: 29655
Epoch time: 10196.37512634
Element set: 172
Inclination: 040.0145 deg
RA of node: 203.3329 deg
Eccentricity: 0.0008593
Arg of perigee: 176.0536 deg
Mean anomaly: 184.0646 deg
Mean motion: 16.03791059 rev/day
Decay rate: 2.29562e-03 rev/day^2
Epoch rev: 20450
Checksum: 288
Satellite: CP3
Catalog number: 31129
Epoch time: 10196.46427681
Element set: 627
Inclination: 097.9362 deg
RA of node: 234.5215 deg
Eccentricity: 0.0103442
Arg of perigee: 145.1795 deg
Mean anomaly: 215.6238 deg
Mean motion: 14.52278266 rev/day
Decay rate: 1.68e-06 rev/day^2
Epoch rev: 17196
Checksum: 311
Satellite: CO-65
Catalog number: 32785
Epoch time: 10196.32566834
Element set: 732
Inclination: 097.8946 deg
RA of node: 260.8623 deg
Eccentricity: 0.0014552
Arg of perigee: 189.1706 deg
Mean anomaly: 170.9267 deg
Mean motion: 14.81677253 rev/day
Decay rate: -1.38e-06 rev/day^2
Epoch rev: 11965
Checksum: 342
Satellite: KKS-1
Catalog number: 33493
Epoch time: 10196.83302258
Element set: 664
Inclination: 098.0885 deg
RA of node: 316.5736 deg
Eccentricity: 0.0021143
Arg of perigee: 051.2273 deg
Mean anomaly: 309.0832 deg
Mean motion: 14.81032850 rev/day
Decay rate: 2.94e-06 rev/day^2
Epoch rev: 7972
Checksum: 294
Satellite: SOHLA-1
Catalog number: 33496
Epoch time: 10195.80594797
Element set: 0152
Inclination: 098.0607 deg
RA of node: 304.5260 deg
Eccentricity: 0.0007619
Arg of perigee: 111.8040 deg
Mean anomaly: 248.3989 deg
Mean motion: 14.69502307 rev/day
Decay rate: -6.0e-07 rev/day^2
Epoch rev: 07893
Checksum: 312
Satellite: STUDSAT
Catalog number: 36801
Epoch time: 10196.78582254
Element set: 14
Inclination: 098.1468 deg
RA of node: 255.9808 deg
Eccentricity: 0.0013548
Arg of perigee: 276.1619 deg
Mean anomaly: 083.8047 deg
Mean motion: 14.79744784 rev/day
Decay rate: 6.98e-06 rev/day^2
Epoch rev: 54
Checksum: 333
/EX
SB KEPS @ AMSAT $ORB10196.W
Orbital Elements 10196.WEATHER
HR AMSAT ORBITAL ELEMENTS FOR WEATHER SATELLITES
FROM WA5QGD FORT WORTH,TX July 15, 2010
Send Subscribe/unsubscribe to KEPS at http://www.amsat.org/mailman/listinfo/keps
BID: ORB10196.W
TO ALL RADIO AMATEURS BT
Satellite: NOAA-10
Catalog number: 16969
Epoch time: 10195.70086032
Element set: 0133
Inclination: 098.6546 deg
RA of node: 224.4084 deg
Eccentricity: 0.0012866
Arg of perigee: 128.5891 deg
Mean anomaly: 231.6446 deg
Mean motion: 14.27420936 rev/day
Decay rate: -6.8e-07 rev/day^2
Epoch rev: 23950
Checksum: 309
Satellite: NOAA-11
Catalog number: 19531
Epoch time: 10195.74826372
Element set: 0146
Inclination: 098.7707 deg
RA of node: 284.3050 deg
Eccentricity: 0.0012402
Arg of perigee: 070.3497 deg
Mean anomaly: 289.9031 deg
Mean motion: 14.14929261 rev/day
Decay rate: -1.74e-06 rev/day^2
Epoch rev: 12503
Checksum: 291
Satellite: NOAA-12
Catalog number: 21263
Epoch time: 10195.79287884
Element set: 0634
Inclination: 098.7644 deg
RA of node: 208.9472 deg
Eccentricity: 0.0013444
Arg of perigee: 086.0244 deg
Mean anomaly: 274.2467 deg
Mean motion: 14.25643761 rev/day
Decay rate: 3.9e-07 rev/day^2
Epoch rev: 99633
Checksum: 333
Satellite: MET-3/5
Catalog number: 21655
Epoch time: 10195.75687860
Element set: 861
Inclination: 082.5604 deg
RA of node: 289.1574 deg
Eccentricity: 0.0012168
Arg of perigee: 281.6850 deg
Mean anomaly: 078.2943 deg
Mean motion: 13.17025381 rev/day
Decay rate: 5.1e-07 rev/day^2
Epoch rev: 90930
Checksum: 316
Satellite: MET-2/21
Catalog number: 22782
Epoch time: 10195.62603382
Element set: 0830
Inclination: 082.5458 deg
RA of node: 230.6727 deg
Eccentricity: 0.0021534
Arg of perigee: 329.6812 deg
Mean anomaly: 030.3105 deg
Mean motion: 13.83645309 rev/day
Decay rate: 2.0e-07 rev/day^2
Epoch rev: 85187
Checksum: 284
